[[{"header":{"parameterUnit":"m.s-1","parameterCategory":2,"la1":30.2991,"la2":30.254,"lo1":-89.0895,"lo2":-89.0444,"dy":0.0017,"dx":0.0017,"nx":28,"ny":28,"refTime":"2025-09-13T03:00:00:Z","depth":"0","parameterNumber":2,"parameterNumberName":"U-component_of_CURRENTS"},"data":[0,0,0,0,0,0,0,0,0,0,0,0,0,0,0,0,0,0,0,0,0,0,0,0,0,0,0,0,0,0,0,0,0,0,0,0,0,0,0,0,0,0,0,0,0,0,0,0,0,0,0,0,0,0,0,0,0,0,-0.3018,-0.3019,0,-0.3045,-0.3045,-0.3045,-0.2928,-0.2925,-0.2922,-0.292,-0.2769,-0.2768,-0.2767,0,0,0,0,0,0,0,0,0,0,0,0,0,-0.2855,-0.2858,-0.3018,-0.3019,-0.302,-0.3045,-0.3045,-0.3045,-0.2929,-0.2925,-0.2922,-0.2918,-0.277,-0.2768,-0.2767,0,0,0,0,0,0,0,0,0,0,0,0,0,-0.2903,-0.2859,-0.3018,-0.2969,-0.2965,-0.3045,-0.3045,-0.3044,-0.293,-0.2925,-0.2921,-0.2917,-0.277,-0.2768,-0.2766,-0.2842,0,0,-0.276,-0.276,0,0,0,0,0,0,0,0,-0.2901,-0.2909,-0.2975,-0.2973,-0.2969,-0.2984,-0.2932,-0.297,-0.2931,-0.2937,-0.292,-0.2915,-0.2831,-0.2824,-0.2834,-0.2835,-0.2828,-0.276,-0.2759,-0.2758,-0.2758,0,0,0,0,0,0,0,-0.2897,-0.2907,-0.3023,-0.2977,-0.2973,-0.2942,-0.2944,-0.2939,-0.2901,-0.2936,-0.2929,-0.2943,-0.2827,-0.2836,-0.2829,-0.2826,-0.276,-0.2759,-0.2757,-0.2757,-0.2879,-0.2883,0,0,0,0,0,0,-0.2912,-0.2905,-0.3022,-0.3024,-0.2929,-0.2949,-0.295,-0.2979,-0.2905,-0.2892,-0.2946,-0.2937,-0.2841,-0.2831,-0.2823,-0.2901,-0.2758,-0.2756,-0.2755,-0.2875,-0.288,-0.2885,0,0,0,0,0,0,-0.2908,-0.2923,-0.3021,-0.2968,-0.2978,-0.2957,-0.2989,-0.2982,-0.2973,-0.2915,-0.2897,-0.2944,-0.2838,-0.2826,-0.2832,-0.2893,-0.2756,-0.2754,-0.2869,-0.2876,-0.2882,-0.306,0,0,0,0,0,0,-0.2904,-0.2922,-0.2944,-0.297,-0.2982,-0.3095,-0.2994,-0.2986,-0.2992,-0.2979,-0.2908,-0.289,-0.2833,-0.2836,-0.283,-0.2888,-0.2752,-0.2864,-0.2872,-0.288,-0.3048,-0.3072,-0.3092,0,0,0,0,0,-0.2898,-0.2968,-0.2946,-0.2959,-0.3016,-0.3099,-0.3104,-0.3067,-0.2996,-0.3033,-0.2973,-0.2892,-0.2884,-0.2838,-0.283,-0.2889,-0.286,-0.287,-0.288,-0.3039,-0.3067,-0.3091,0,0,0,0,0,0,-0.2907,-0.2964,-0.2939,-0.3019,-0.3061,-0.3081,-0.3114,-0.3081,-0.3066,-0.3033,-0.2945,-0.2929,-0.2962,-0.2915,-0.2866,-0.2955,-0.2861,-0.287,-0.2985,-0.3011,-0.3032,-0.3026,-0.2751,0,0,0,0,0,-0.2924,-0.2986,-0.3028,-0.3091,-0.3116,-0.3109,-0.3131,-0.3114,-0.3109,-0.3095,-0.305,-0.3009,-0.3009,-0.2995,-0.299,-0.3036,-0.2917,-0.3074,-0.3095,-0.3114,-0.3108,-0.2957,-0.2961,-0.2917,-0.2917,-0.2917,0,0,-0.2942,-0.2983,-0.3014,-0.3096,-0.3114,-0.3195,-0.311,-0.3166,-0.321,-0.3085,-0.3119,-0.3086,-0.3042,-0.3095,-0.3106,-0.3051,-0.3078,-0.3126,-0.3142,-0.3126,-0.2967,-0.297,-0.2973,-0.2924,-0.2923,-0.2922,0,0,-0.3044,-0.305,-0.3144,-0.3192,-0.3249,-0.3258,-0.3277,-0.3307,-0.3291,-0.3342,-0.3262,-0.3259,-0.3264,-0.3244,-0.3231,-0.3373,-0.3202,-0.3384,-0.3476,-0.3331,-0.333,-0.3328,-0.3223,-0.321,-0.3387,-0.3387,-0.3388,0,-0.3053,-0.3176,-0.3185,-0.3289,-0.3325,-0.3292,-0.3386,-0.3403,-0.3425,-0.3397,-0.3374,-0.3343,-0.3335,-0.3344,-0.3429,-0.3418,-0.3305,-0.3374,-0.335,-0.3346,-0.3341,-0.3232,-0.3215,-0.3397,-0.3396,-0.3395,-0.3394,0,-0.3236,-0.3316,-0.3379,-0.3486,-0.3531,-0.3612,-0.363,-0.3647,-0.361,-0.3588,-0.3579,-0.3559,-0.3504,-0.3553,-0.3552,-0.3541,-0.3466,-0.3393,-0.3266,-0.3354,-0.3237,-0.3216,-0.3411,-0.3408,-0.3405,-0.3402,0,0,-0.3288,-0.347,-0.3489,-0.3494,-0.3629,-0.3632,-0.3745,-0.3772,-0.3702,-0.3758,-0.367,-0.3782,-0.3688,-0.3673,-0.3642,-0.3589,-0.3528,-0.3508,-0.3496,-0.3374,-0.321,-0.3164,-0.3135,-0.3417,-0.3414,-0.3412,-0.3155,0,-0.3414,-0.3582,-0.3681,-0.3771,-0.3812,-0.383,-0.3876,-0.3873,-0.3837,-0.3744,-0.3725,-0.3646,-0.3751,-0.3674,-0.3662,-0.352,-0.3475,-0.3605,-0.3169,-0.3157,-0.3077,-0.311,-0.2993,-0.2752,-0.3133,-0.3129,-0.3127,0,-0.3573,-0.3619,-0.376,-0.3763,-0.378,-0.3836,-0.3763,-0.3796,-0.3725,-0.3688,-0.365,-0.3568,-0.3552,-0.3567,-0.3423,-0.3484,-0.3394,-0.331,-0.3293,-0.3162,-0.307,-0.2721,-0.2698,-0.2699,-0.3093,-0.3096,-0.3098,0,-0.3501,-0.3658,-0.3722,-0.3752,-0.3792,-0.3799,-0.3791,-0.3751,-0.3671,-0.3594,-0.3491,-0.3454,-0.3344,-0.3263,-0.3223,-0.3259,-0.3,-0.2979,-0.2864,-0.2859,-0.2631,-0.2612,-0.2522,-0.285,-0.285,-0.2851,-0.2852,0,-0.3584,-0.3604,-0.3657,-0.366,-0.3563,-0.3655,-0.3533,-0.3533,-0.3463,-0.333,-0.3395,-0.3273,-0.3254,-0.3133,-0.3114,-0.2942,-0.29,-0.2874,-0.2778,-0.2702,-0.2693,-0.2579,-0.2626,-0.2841,-0.2843,-0.2845,-0.2847,0,-0.3502,-0.362,-0.3569,-0.3562,-0.3534,-0.3415,-0.3338,-0.3228,-0.3246,-0.3073,-0.304,-0.3047,-0.2934,-0.2919,-0.2747,-0.2749,-0.2553,-0.2562,-0.2522,-0.2429,-0.2327,-0.2388,-0.2165,-0.2104,-0.2335,-0.2332,-0.233,0,-0.3488,-0.3475,-0.3373,-0.3272,-0.3268,-0.3134,-0.3041,-0.3074,-0.2998,-0.2934,-0.2837,-0.2737,-0.2659,-0.2458,-0.2422,-0.2311,-0.2386,-0.2161,-0.2242,-0.2306,-0.23,-0.2362,-0.2333,-0.2015,-0.2011,-0.2007,-0.2004,0,-0.3294,-0.3261,-0.3171,-0.2976,-0.2866,-0.2739,-0.2662,-0.259,-0.2638,-0.2571,-0.2504,-0.2436,-0.2307,-0.2173,-0.2096,-0.2037,-0.2116,-0.2076,-0.2095,-0.2023,-0.2116,-0.2014,-0.2252,-0.1969,-0.1972,-0.1975,-0.1977,-0.1978,-0.3046,-0.29,-0.2776,-0.2582,-0.2483,-0.2393,-0.2268,-0.2278,-0.2185,-0.2131,-0.2184,-0.2087,-0.2026,-0.1893,-0.1833,-0.1731,-0.1824,-0.1705,-0.1764,-0.1815,-0.1799,-0.2017,-0.167,-0.1671,-0.1673,-0.1674,-0.1675,0,-0.2659,-0.256,-0.2381,-0.219,-0.2058,-0.2105,-0.2024,-0.1942,-0.1865,-0.1861,-0.1818,-0.1758,-0.1636,-0.1612,-0.1531,-0.1465,-0.1448,-0.1454,-0.1505,-0.148,-0.1582,-0.1617,-0.1298,-0.1298,-0.1298,-0.1298,-0.1298,-0.1298,-0.2437,-0.2168,-0.2111,-0.1812,-0.174,-0.1564,-0.1524,-0.1488,-0.1463,-0.1381,-0.1366,-0.133,-0.1398,-0.1551,-0.1461,-0.1383,-0.1385,-0.1324,-0.1388,-0.1492,-0.1521,-0.1549,-0.1594,-0.1274,-0.1274,-0.1207,-0.1207,-0.1207]},{"header":{"parameterUnit":"m.s-1","parameterCategory":2,"la1":30.2991,"la2":30.254,"lo1":-89.0895,"lo2":-89.0444,"dy":0.0017,"dx":0.0017,"nx":28,"ny":28,"refTime":"2025-09-13T03:00:00:Z","depth":"0","parameterNumber":3,"parameterNumberName":"V-component_of_CURRENTS"},"data":[0,0,0,0,0,0,0,0,0,0,0,0,0,0,0,0,0,0,0,0,0,0,0,0,0,0,0,0,0,0,0,0,0,0,0,0,0,0,0,0,0,0,0,0,0,0,0,0,0,0,0,0,0,0,0,0,0,0,-0.035,-0.0348,0,-0.0202,-0.02,-0.0198,-0.0112,-0.0111,-0.0111,-0.0111,0.0076,0.008,0.0085,0,0,0,0,0,0,0,0,0,0,0,0,0,-0.0473,-0.0471,-0.035,-0.0348,-0.0346,-0.0202,-0.02,-0.0198,-0.0112,-0.0111,-0.0111,-0.0111,0.0074,0.008,0.0086,0,0,0,0,0,0,0,0,0,0,0,0,0,-0.038,-0.0471,-0.035,-0.0288,-0.0281,-0.0203,-0.02,-0.0197,-0.0112,-0.0111,-0.0111,-0.0111,0.0072,0.0079,0.0086,0.0125,0,0,0.0108,0.0112,0,0,0,0,0,0,0,0,-0.0386,-0.0376,-0.0298,-0.0292,-0.0284,-0.0177,-0.0175,-0.0088,-0.0112,-0.0174,-0.0111,-0.0111,-0.0006,0.0007,0.0037,0.0134,0.0142,0.0109,0.0113,0.0117,0.0119,0,0,0,0,0,0,0,-0.0392,-0.0381,-0.0289,-0.0297,-0.0288,-0.0238,-0.0225,-0.0158,-0.0091,-0.0168,-0.0162,-0.0149,-0.0002,0.0029,0.0042,0.0145,0.0109,0.0115,0.012,0.0122,0.0288,0.0289,0,0,0,0,0,0,-0.0419,-0.0387,-0.0294,-0.0285,-0.0337,-0.0237,-0.0222,-0.021,-0.0093,-0.0075,-0.0149,-0.0145,0.0017,0.0033,0.0049,0.0111,0.0116,0.0123,0.0127,0.0288,0.0288,0.0289,0,0,0,0,0,0,-0.0422,-0.0412,-0.03,-0.0334,-0.0317,-0.0236,-0.0222,-0.0207,-0.0177,-0.0079,-0.006,-0.0136,0.0018,0.0038,0.0102,0.0118,0.0126,0.0133,0.0288,0.0288,0.0289,0.023,0,0,0,0,0,0,-0.0426,-0.0414,-0.0421,-0.0336,-0.0316,-0.0267,-0.0222,-0.0204,-0.017,-0.0164,-0.0061,-0.0043,0.002,0.0091,0.011,0.0129,0.0139,0.0288,0.0288,0.0288,0.0232,0.0228,0.0225,0,0,0,0,0,-0.0431,-0.0452,-0.0422,-0.0411,-0.0326,-0.0268,-0.0253,-0.0192,-0.0171,-0.0164,-0.0093,-0.0047,0.0105,0.0097,0.0119,0.014,0.0288,0.0288,0.0288,0.0233,0.0229,0.0225,0,0,0,0,0,0,-0.0518,-0.0443,-0.0408,-0.0407,-0.0345,-0.0255,-0.025,-0.0201,-0.0139,-0.0135,-0.0042,-0.0019,0.0039,0.0093,0.0082,0.0186,0.0203,0.0208,0.0154,0.0151,0.0147,0.0142,0.0145,0,0,0,0,0,-0.0538,-0.053,-0.0444,-0.0444,-0.0419,-0.0334,-0.0305,-0.0259,-0.0191,-0.0163,-0.0088,-0.0011,0.0058,0.0104,0.0165,0.0229,0.0263,0.0255,0.0251,0.0248,0.0257,0.0331,0.0335,0.0289,0.0289,0.0289,0,0,-0.0573,-0.0531,-0.0527,-0.0461,-0.0411,-0.0371,-0.0316,-0.0281,-0.0239,-0.0152,-0.0088,-0.0026,0.0067,0.0133,0.0166,0.0184,0.0268,0.0248,0.0245,0.0256,0.0332,0.0336,0.034,0.0289,0.0289,0.0289,0,0,-0.0631,-0.06,-0.0602,-0.0549,-0.0478,-0.042,-0.0414,-0.0322,-0.0277,-0.0209,-0.0137,-0.0063,0.0039,0.0122,0.0175,0.0191,0.0237,0.0201,0.0199,0.027,0.0275,0.0279,0.0278,0.0283,0.0212,0.0212,0.0212,0,-0.0678,-0.065,-0.0596,-0.057,-0.0526,-0.0446,-0.0417,-0.0362,-0.0259,-0.0207,-0.0203,-0.0026,0.0042,0.0158,0.0158,0.0188,0.0204,0.0207,0.0266,0.0271,0.0277,0.0275,0.0282,0.0209,0.021,0.021,0.021,0,-0.0716,-0.0683,-0.0683,-0.0614,-0.0568,-0.0536,-0.0443,-0.0393,-0.0333,-0.0256,-0.015,-0.0054,0.0059,0.0087,0.013,0.0215,0.02,0.024,0.0274,0.0278,0.0275,0.0283,0.0205,0.0206,0.0207,0.0208,0,0,-0.0837,-0.073,-0.0725,-0.0676,-0.058,-0.054,-0.0478,-0.0374,-0.0322,-0.0227,-0.0151,-0.0021,0.0034,0.0096,0.0165,0.023,0.0262,0.0243,0.0248,0.0235,0.0359,0.042,0.0434,0.0309,0.0312,0.0314,0.0321,0,-0.0872,-0.0824,-0.0759,-0.07,-0.0655,-0.0553,-0.0497,-0.0397,-0.0314,-0.0234,-0.0109,-0.0029,0.0037,0.0075,0.0159,0.0224,0.0288,0.0253,0.0363,0.0365,0.0417,0.0449,0.051,0.0531,0.0329,0.033,0.0331,0,-0.0929,-0.0867,-0.0818,-0.0696,-0.0672,-0.0635,-0.0512,-0.0451,-0.0317,-0.0256,-0.0137,-0.006,0.0052,0.0091,0.0245,0.021,0.0286,0.0341,0.0344,0.0437,0.0445,0.0506,0.0553,0.0721,0.0344,0.0343,0.0342,0,-0.1011,-0.0914,-0.0868,-0.0826,-0.0688,-0.0648,-0.0586,-0.0457,-0.0408,-0.0282,-0.0251,-0.0088,-0.004,0.0094,0.023,0.0223,0.0377,0.0386,0.0519,0.052,0.0618,0.0626,0.0848,0.0521,0.0521,0.0521,0.0521,0,-0.1061,-0.1022,-0.0905,-0.0865,-0.0814,-0.071,-0.0658,-0.0567,-0.0475,-0.0418,-0.0281,-0.0211,-0.0036,0.0084,0.0208,0.0387,0.0374,0.0528,0.0553,0.0592,0.0598,0.0786,0.0839,0.0521,0.0521,0.0521,0.0521,0,-0.1143,-0.1075,-0.1007,-0.0875,-0.0847,-0.0814,-0.0729,-0.069,-0.0599,-0.0534,-0.0508,-0.0332,-0.0166,0.0021,0.0222,0.0352,0.0629,0.0599,0.0599,0.0627,0.0893,0.0938,0.1156,0.1263,0.0709,0.0711,0.0713,0,-0.118,-0.1146,-0.1032,-0.1009,-0.0952,-0.0899,-0.0867,-0.0766,-0.0727,-0.0586,-0.0562,-0.0392,-0.0221,0.0084,0.0344,0.0582,0.0729,0.0774,0.0812,0.094,0.1008,0.1031,0.1107,0.0875,0.0878,0.088,0.0882,0,-0.1203,-0.1167,-0.1099,-0.1058,-0.1029,-0.0995,-0.0942,-0.0937,-0.0814,-0.0734,-0.0586,-0.0446,-0.0126,0.0205,0.0526,0.0682,0.091,0.0829,0.0996,0.1199,0.1209,0.1312,0.0775,0.0903,0.0901,0.0899,0.0898,0.0897,-0.1224,-0.1195,-0.1115,-0.108,-0.1069,-0.1058,-0.1029,-0.0962,-0.0882,-0.0683,-0.0595,-0.0278,0.0121,0.0598,0.0766,0.1155,0.1096,0.1279,0.1322,0.1333,0.1474,0.0956,0.1108,0.1107,0.1107,0.1106,0.1105,0,-0.1199,-0.1158,-0.1135,-0.1091,-0.1097,-0.1078,-0.1041,-0.0974,-0.0856,-0.0585,-0.039,0.0154,0.0571,0.0957,0.1431,0.1642,0.1684,0.1747,0.1811,0.1866,0.1447,0.1497,0.1705,0.1704,0.1704,0.1704,0.1704,0.1704,-0.1178,-0.1122,-0.1099,-0.1093,-0.1093,-0.1067,-0.1041,-0.0916,-0.0704,-0.0227,0.0187,0.0482,0.0948,0.1603,0.205,0.2096,0.2283,0.2258,0.2348,0.2072,0.2032,0.1993,0.2059,0.2381,0.2381,0.2776,0.278,0.2783]}],[{"header":{"parameterUnit":"m.s-1","parameterCategory":2,"la1":30.2991,"la2":30.254,"lo1":-89.0895,"lo2":-89.0444,"dy":0.0017,"dx":0.0017,"nx":28,"ny":28,"refTime":"2025-09-13T03:00:00:Z","depth":"2","parameterNumber":2,"parameterNumberName":"U-component_of_CURRENTS"},"data":[0,0,0,0,0,0,0,0,0,0,0,0,0,0,0,0,0,0,0,0,0,0,0,0,0,0,0,0,0,0,0,0,0,0,0,0,0,0,0,0,0,0,0,0,0,0,0,0,0,0,0,0,0,0,0,0,0,0,-0.258,-0.2579,0,-0.2678,-0.2681,-0.2684,-0.2763,-0.2761,-0.276,-0.2759,-0.2798,-0.28,-0.2802,0,0,0,0,0,0,0,0,0,0,0,0,0,-0.2466,-0.2469,-0.258,-0.2579,-0.2578,-0.2678,-0.2681,-0.2685,-0.2763,-0.2761,-0.276,-0.2758,-0.2797,-0.28,-0.2802,0,0,0,0,0,0,0,0,0,0,0,0,0,-0.2556,-0.247,-0.258,-0.2613,-0.2615,-0.2677,-0.2681,-0.2686,-0.2763,-0.2761,-0.2759,-0.2758,-0.2796,-0.2799,-0.2803,-0.2861,0,0,-0.2813,-0.2814,0,0,0,0,0,0,0,0,-0.2551,-0.2563,-0.2609,-0.261,-0.2613,-0.2686,-0.2654,-0.2733,-0.2764,-0.2731,-0.2759,-0.2757,-0.2742,-0.2749,-0.2805,-0.2863,-0.2864,-0.2813,-0.2815,-0.2816,-0.2817,0,0,0,0,0,0,0,-0.2545,-0.2559,-0.2641,-0.2607,-0.261,-0.2622,-0.2636,-0.2672,-0.2762,-0.2733,-0.2734,-0.271,-0.2745,-0.2802,-0.2806,-0.2865,-0.2813,-0.2816,-0.2818,-0.2819,-0.2978,-0.298,0,0,0,0,0,0,-0.249,-0.2554,-0.2638,-0.2642,-0.2551,-0.2625,-0.2641,-0.2683,-0.2763,-0.2767,-0.2711,-0.2712,-0.2797,-0.2802,-0.2807,-0.2871,-0.2816,-0.2819,-0.2821,-0.2976,-0.2979,-0.2981,0,0,0,0,0,0,-0.2489,-0.25,-0.2633,-0.2577,-0.2592,-0.2626,-0.2675,-0.2685,-0.2749,-0.2742,-0.275,-0.2759,-0.2796,-0.2802,-0.286,-0.2873,-0.2821,-0.2824,-0.2973,-0.2977,-0.298,-0.3004,0,0,0,0,0,0,-0.2487,-0.2501,-0.2524,-0.2576,-0.2593,-0.2683,-0.2674,-0.2688,-0.2725,-0.2729,-0.2786,-0.2788,-0.2795,-0.2856,-0.2864,-0.2876,-0.2827,-0.2971,-0.2975,-0.2979,-0.3001,-0.3008,-0.3014,0,0,0,0,0,-0.2484,-0.2531,-0.2527,-0.2535,-0.2623,-0.2682,-0.2698,-0.2726,-0.2728,-0.2777,-0.2812,-0.2787,-0.2887,-0.2861,-0.287,-0.2883,-0.2968,-0.2974,-0.2979,-0.2997,-0.3007,-0.3014,0,0,0,0,0,0,-0.2503,-0.2543,-0.2539,-0.2599,-0.263,-0.2687,-0.2719,-0.2739,-0.2815,-0.2844,-0.2828,-0.2835,-0.2885,-0.2895,-0.2866,-0.2945,-0.2919,-0.2926,-0.293,-0.2939,-0.2946,-0.2867,-0.2829,0,0,0,0,0,-0.2508,-0.2562,-0.2583,-0.2633,-0.2644,-0.2687,-0.2713,-0.2764,-0.2814,-0.285,-0.2869,-0.2902,-0.2918,-0.2935,-0.2971,-0.3024,-0.2967,-0.3037,-0.3044,-0.3049,-0.2995,-0.2919,-0.2911,-0.2998,-0.2998,-0.2998,0,0,-0.2496,-0.255,-0.2558,-0.2638,-0.267,-0.2686,-0.2708,-0.2794,-0.2819,-0.284,-0.29,-0.2935,-0.294,-0.2996,-0.3018,-0.3002,-0.3013,-0.3056,-0.306,-0.3,-0.2923,-0.2913,-0.2905,-0.3001,-0.3001,-0.3,0,0,-0.2512,-0.2582,-0.2605,-0.2654,-0.2722,-0.2744,-0.276,-0.2842,-0.2893,-0.2968,-0.2968,-0.3003,-0.3061,-0.305,-0.3046,-0.3113,-0.3053,-0.3145,-0.311,-0.304,-0.303,-0.302,-0.2995,-0.2982,-0.3145,-0.3145,-0.3145,0,-0.2494,-0.2559,-0.2619,-0.2671,-0.2684,-0.275,-0.2767,-0.2833,-0.293,-0.294,-0.2991,-0.3026,-0.3066,-0.3032,-0.3074,-0.3119,-0.3081,-0.3075,-0.304,-0.3029,-0.3018,-0.2994,-0.298,-0.3147,-0.3147,-0.3146,-0.3146,0,-0.2493,-0.2572,-0.2606,-0.2664,-0.2691,-0.2764,-0.2804,-0.2878,-0.2933,-0.2952,-0.2988,-0.3054,-0.3044,-0.3088,-0.3107,-0.3055,-0.3058,-0.3056,-0.3001,-0.3009,-0.2987,-0.2971,-0.3149,-0.3149,-0.3148,-0.3148,0,0,-0.2423,-0.2561,-0.2587,-0.2615,-0.2722,-0.2742,-0.2795,-0.2814,-0.2816,-0.2918,-0.289,-0.2957,-0.2978,-0.2974,-0.3011,-0.2971,-0.2928,-0.2989,-0.2984,-0.2931,-0.2791,-0.2732,-0.271,-0.2909,-0.2905,-0.2902,-0.2826,0,-0.2406,-0.2481,-0.2557,-0.2604,-0.2626,-0.2717,-0.273,-0.2777,-0.2826,-0.2836,-0.2875,-0.2878,-0.2933,-0.2959,-0.2922,-0.2936,-0.2877,-0.2949,-0.2816,-0.2813,-0.2729,-0.2685,-0.2505,-0.2412,-0.281,-0.2807,-0.2805,0,-0.2384,-0.2448,-0.2484,-0.2581,-0.259,-0.2613,-0.2639,-0.2678,-0.2702,-0.2747,-0.274,-0.277,-0.2757,-0.281,-0.2745,-0.279,-0.277,-0.2766,-0.2763,-0.2662,-0.2719,-0.246,-0.2368,-0.2778,-0.278,-0.2782,-0.2784,0,-0.2286,-0.2411,-0.2431,-0.2472,-0.2558,-0.2587,-0.2609,-0.2638,-0.2662,-0.2672,-0.2687,-0.2654,-0.2682,-0.2623,-0.2667,-0.2694,-0.2582,-0.262,-0.2523,-0.2522,-0.2311,-0.2296,-0.249,-0.249,-0.249,-0.249,-0.2491,0,-0.2231,-0.2286,-0.24,-0.2421,-0.2431,-0.2514,-0.2516,-0.2551,-0.2589,-0.2567,-0.2622,-0.2605,-0.2631,-0.2605,-0.2604,-0.2521,-0.2524,-0.2467,-0.2464,-0.2329,-0.2317,-0.258,-0.2592,-0.2488,-0.2488,-0.2489,-0.2489,0,-0.212,-0.2215,-0.2279,-0.2376,-0.2398,-0.24,-0.2471,-0.2466,-0.2526,-0.2511,-0.2516,-0.2561,-0.252,-0.253,-0.2468,-0.2448,-0.2376,-0.2331,-0.2201,-0.2181,-0.2383,-0.2398,-0.2196,-0.2193,-0.219,-0.2187,-0.2185,0,-0.2074,-0.2092,-0.2213,-0.2232,-0.2284,-0.2315,-0.2328,-0.2411,-0.2413,-0.2464,-0.2439,-0.2435,-0.2379,-0.2301,-0.2241,-0.2163,-0.2262,-0.1971,-0.1963,-0.2317,-0.2337,-0.2356,-0.2374,-0.1734,-0.1728,-0.1723,-0.172,0,-0.1976,-0.2042,-0.2066,-0.2096,-0.2134,-0.2153,-0.219,-0.2194,-0.2276,-0.228,-0.226,-0.2225,-0.2158,-0.1996,-0.193,-0.187,-0.1977,-0.1874,-0.2211,-0.1848,-0.1876,-0.1899,-0.1932,-0.1679,-0.1683,-0.1686,-0.1688,-0.169,-0.1892,-0.1903,-0.1939,-0.1944,-0.1978,-0.1973,-0.1935,-0.1988,-0.1978,-0.195,-0.2024,-0.1912,-0.19,-0.1678,-0.1594,-0.1543,-0.1682,-0.1626,-0.1641,-0.166,-0.1631,-0.1654,-0.1412,-0.1414,-0.1417,-0.1419,-0.142,0,-0.1741,-0.1767,-0.1776,-0.1782,-0.174,-0.1809,-0.1811,-0.1749,-0.1685,-0.1692,-0.1651,-0.1466,-0.1352,-0.1346,-0.119,-0.1177,-0.1177,-0.1141,-0.1142,-0.1182,-0.1218,-0.1169,-0.0825,-0.0823,-0.0822,-0.082,0,0,-0.1658,-0.1623,-0.164,-0.1539,-0.1536,-0.1435,-0.1404,-0.1345,-0.1312,-0.1209,-0.1154,-0.124,-0.127,-0.1041,-0.0998,-0.0877,-0.1017,-0.0829,-0.1301,-0.1338,-0.1372,-0.1486,-0.1453,0,0,0,0,0]},{"header":{"parameterUnit":"m.s-1","parameterCategory":2,"la1":30.2991,"la2":30.254,"lo1":-89.0895,"lo2":-89.0444,"dy":0.0017,"dx":0.0017,"nx":28,"ny":28,"refTime":"2025-09-13T03:00:00:Z","depth":"2","parameterNumber":3,"parameterNumberName":"V-component_of_CURRENTS"},"data":[0,0,0,0,0,0,0,0,0,0,0,0,0,0,0,0,0,0,0,0,0,0,0,0,0,0,0,0,0,0,0,0,0,0,0,0,0,0,0,0,0,0,0,0,0,0,0,0,0,0,0,0,0,0,0,0,0,0,-0.0238,-0.0238,0,-0.0172,-0.017,-0.0168,-0.0062,-0.0062,-0.0061,-0.0061,0.0136,0.0141,0.0146,0,0,0,0,0,0,0,0,0,0,0,0,0,-0.02,-0.02,-0.0238,-0.0238,-0.0239,-0.0173,-0.017,-0.0168,-0.0062,-0.0062,-0.0061,-0.0061,0.0135,0.014,0.0146,0,0,0,0,0,0,0,0,0,0,0,0,0,-0.0168,-0.02,-0.0238,-0.019,-0.0186,-0.0173,-0.017,-0.0167,-0.0063,-0.0062,-0.0061,-0.0061,0.0133,0.014,0.0147,0.0177,0,0,0.0169,0.0172,0,0,0,0,0,0,0,0,-0.017,-0.0168,-0.0197,-0.0194,-0.019,-0.0139,-0.0086,-0.0051,-0.0063,-0.0093,-0.0061,-0.006,0.0045,0.006,0.0092,0.0187,0.0195,0.017,0.0174,0.0177,0.0179,0,0,0,0,0,0,0,-0.0173,-0.017,-0.0195,-0.0198,-0.0194,-0.0149,-0.0143,-0.0077,-0.0013,-0.009,-0.0086,-0.0105,0.0051,0.0084,0.0097,0.0198,0.0169,0.0176,0.018,0.0183,0.0389,0.039,0,0,0,0,0,0,-0.0218,-0.0173,-0.0198,-0.0195,-0.0196,-0.0152,-0.0144,-0.0143,-0.0017,-0.0003,-0.0106,-0.01,0.0072,0.0089,0.0104,0.0177,0.0177,0.0184,0.0188,0.0388,0.0389,0.0391,0,0,0,0,0,0,-0.0217,-0.022,-0.0201,-0.0196,-0.0193,-0.0156,-0.0154,-0.0142,-0.0105,-0.0033,-0.0013,-0.0083,0.0073,0.0094,0.0169,0.0184,0.0187,0.0194,0.0387,0.0389,0.039,0.0304,0,0,0,0,0,0,-0.0215,-0.0219,-0.0229,-0.0199,-0.0195,-0.0207,-0.0156,-0.0142,-0.0126,-0.0118,-0.0007,0.0012,0.0075,0.0158,0.0176,0.0194,0.0199,0.0385,0.0388,0.039,0.0305,0.0302,0.03,0,0,0,0,0,-0.0214,-0.0237,-0.0229,-0.0233,-0.0211,-0.021,-0.0202,-0.0162,-0.0127,-0.012,-0.0034,0.0009,0.0185,0.0164,0.0186,0.0206,0.0384,0.0387,0.0389,0.0306,0.0303,0.03,0,0,0,0,0,0,-0.0228,-0.0229,-0.0219,-0.0242,-0.0238,-0.0199,-0.0196,-0.0167,-0.0093,-0.0065,0.0018,0.0043,0.0115,0.0174,0.0148,0.0275,0.0294,0.0301,0.0224,0.0221,0.0219,0.017,0.0205,0,0,0,0,0,-0.0243,-0.0256,-0.025,-0.0272,-0.0267,-0.0227,-0.0221,-0.0189,-0.0134,-0.01,-0.003,0.0062,0.0142,0.0189,0.0263,0.0327,0.0358,0.0359,0.0356,0.0353,0.033,0.0372,0.037,0.0399,0.0399,0.0399,0,0,-0.0266,-0.0265,-0.0278,-0.0278,-0.0256,-0.0265,-0.0215,-0.0202,-0.0191,-0.0089,-0.0032,0.005,0.0156,0.023,0.0269,0.0282,0.0369,0.0356,0.0353,0.0331,0.0374,0.0371,0.0368,0.0401,0.0401,0.04,0,0,-0.0321,-0.0302,-0.0332,-0.0318,-0.0307,-0.0288,-0.0291,-0.0246,-0.0198,-0.0141,-0.006,0.002,0.0141,0.021,0.0266,0.0293,0.0347,0.0332,0.0285,0.0326,0.0323,0.032,0.0373,0.0375,0.0337,0.0337,0.0336,0,-0.0347,-0.0373,-0.0343,-0.0353,-0.0351,-0.0306,-0.0322,-0.0277,-0.0213,-0.0173,-0.0132,0.0042,0.0129,0.0213,0.0231,0.0283,0.0316,0.0283,0.0317,0.0316,0.0314,0.0369,0.0373,0.0333,0.0333,0.0334,0.0334,0,-0.0414,-0.0425,-0.0434,-0.0435,-0.0428,-0.0428,-0.0382,-0.0346,-0.0283,-0.0237,-0.0136,-0.0017,0.008,0.0133,0.0196,0.0242,0.0272,0.0299,0.0311,0.0305,0.0365,0.037,0.0327,0.0329,0.033,0.0331,0,0,-0.0487,-0.0486,-0.0484,-0.0485,-0.0456,-0.0455,-0.0428,-0.0394,-0.0361,-0.0275,-0.0225,-0.0084,-0.0024,0.0041,0.0132,0.0178,0.0216,0.0228,0.0232,0.0253,0.0312,0.0346,0.0356,0.0241,0.0241,0.0241,0.0362,0,-0.0545,-0.0584,-0.0562,-0.059,-0.06,-0.0532,-0.0515,-0.0463,-0.039,-0.033,-0.0206,-0.0122,-0.0057,0.0008,0.0054,0.0185,0.0223,0.0181,0.0337,0.0342,0.035,0.0361,0.0332,0.0438,0.0368,0.0369,0.0369,0,-0.0616,-0.0624,-0.0666,-0.0642,-0.0635,-0.0646,-0.0585,-0.0558,-0.0464,-0.039,-0.0309,-0.0214,-0.0115,-0.0061,0.01,0.007,0.0167,0.0257,0.0264,0.0321,0.0385,0.0433,0.0451,0.0379,0.0378,0.0378,0.0377,0,-0.0683,-0.0691,-0.0726,-0.0716,-0.0693,-0.068,-0.0662,-0.0582,-0.0537,-0.0441,-0.0388,-0.0274,-0.0184,-0.0074,0.0113,0.0108,0.0286,0.0311,0.0426,0.0431,0.0449,0.0454,0.0389,0.0389,0.0389,0.0389,0.0388,0,-0.0748,-0.0769,-0.0758,-0.0772,-0.0778,-0.0736,-0.0723,-0.0669,-0.0593,-0.0547,-0.0437,-0.0361,-0.0186,-0.0052,0.0087,0.0279,0.0267,0.0409,0.0457,0.0423,0.0425,0.0403,0.0403,0.0393,0.0392,0.0391,0.039,0,-0.0816,-0.082,-0.0849,-0.0829,-0.0821,-0.0821,-0.0774,-0.0751,-0.0675,-0.0611,-0.0581,-0.0417,-0.0236,-0.0058,0.016,0.0268,0.0439,0.0504,0.0459,0.0498,0.0561,0.0556,0.0639,0.0641,0.0643,0.0645,0.0646,0,-0.0862,-0.0889,-0.0891,-0.0899,-0.0894,-0.0883,-0.0871,-0.0801,-0.0769,-0.0634,-0.0602,-0.0421,-0.027,0.0054,0.027,0.0507,0.0501,0.0611,0.0589,0.0545,0.0584,0.0576,0.0568,0.0596,0.0597,0.0597,0.0598,0,-0.0922,-0.0925,-0.0935,-0.0955,-0.0959,-0.0952,-0.0928,-0.0915,-0.0823,-0.0741,-0.06,-0.0471,-0.0166,0.0098,0.039,0.0521,0.0568,0.0631,0.0605,0.0529,0.0512,0.0547,0.054,0.0603,0.0602,0.0602,0.0602,0.0602,-0.0945,-0.0966,-0.098,-0.0989,-0.1002,-0.1004,-0.099,-0.0944,-0.0876,-0.0729,-0.0609,-0.0375,-0.0151,0.0285,0.0472,0.0648,0.065,0.0697,0.0692,0.0687,0.0652,0.0638,0.0747,0.0748,0.0748,0.0748,0.0748,0,-0.0957,-0.0979,-0.1004,-0.1021,-0.1039,-0.1031,-0.1006,-0.0962,-0.0871,-0.0724,-0.0552,-0.0248,0.0048,0.028,0.0565,0.0726,0.0701,0.0745,0.0677,0.0671,0.0667,0.0627,0.0719,0.0719,0.0719,0.0719,0,0,-0.0959,-0.0987,-0.1001,-0.1033,-0.105,-0.1044,-0.1024,-0.0934,-0.0822,-0.0648,-0.0461,-0.0225,0.0058,0.0255,0.0446,0.0587,0.0577,0.0595,0.0602,0.0491,0.0484,0.0628,0.0561,0,0,0,0,0]}],[{"header":{"parameterUnit":"m.s-1","parameterCategory":2,"la1":30.2991,"la2":30.254,"lo1":-89.0895,"lo2":-89.0444,"dy":0.0017,"dx":0.0017,"nx":28,"ny":28,"refTime":"2025-09-13T03:00:00:Z","depth":"4","parameterNumber":2,"parameterNumberName":"U-component_of_CURRENTS"},"data":[0,0,0,0,0,0,0,0,0,0,0,0,0,0,0,0,0,0,0,0,0,0,0,0,0,0,0,0,0,0,0,0,0,0,0,0,0,0,0,0,0,0,0,0,0,0,0,0,0,0,0,0,0,0,0,0,0,0,-0.1371,-0.1371,0,-0.1422,-0.1423,-0.1424,-0.1455,-0.1455,-0.1455,-0.1455,-0.1528,-0.153,-0.1532,0,0,0,0,0,0,0,0,0,0,0,0,0,-0.1276,-0.1277,-0.1371,-0.1371,-0.1372,-0.1422,-0.1423,-0.1424,-0.1455,-0.1455,-0.1455,-0.1455,-0.1528,-0.153,-0.1532,0,0,0,0,0,0,0,0,0,0,0,0,0,-0.1322,-0.1278,-0.1371,-0.1392,-0.1395,-0.1422,-0.1423,-0.1424,-0.1455,-0.1455,-0.1455,-0.1455,-0.1527,-0.153,-0.1532,-0.1549,0,0,-0.1541,-0.1542,0,0,0,0,0,0,0,0,-0.132,-0.1326,-0.1389,-0.1391,-0.1394,-0.1431,-0.1416,-0.1467,-0.1455,-0.1434,-0.1455,-0.1455,-0.1497,-0.1502,-0.1513,-0.1553,-0.1556,-0.1542,-0.1543,-0.1544,-0.1545,0,0,0,0,0,0,0,-0.1316,-0.1324,-0.1393,-0.1389,-0.1392,-0.1391,-0.1399,-0.1426,-0.1466,-0.1435,-0.1437,-0.1441,-0.1499,-0.151,-0.1515,-0.1557,-0.1541,-0.1544,-0.1546,-0.1547,-0.1672,-0.1673,0,0,0,0,0,0,-0.1309,-0.1321,-0.1391,-0.1394,-0.1355,-0.1393,-0.1401,-0.142,-0.1465,-0.1471,-0.1441,-0.1442,-0.1506,-0.1512,-0.1518,-0.1594,-0.1544,-0.1547,-0.1549,-0.167,-0.1672,-0.1674,0,0,0,0,0,0,-0.1307,-0.1315,-0.1389,-0.1356,-0.1366,-0.1395,-0.1416,-0.1421,-0.146,-0.1469,-0.1476,-0.1477,-0.1506,-0.1514,-0.1561,-0.1595,-0.1548,-0.1551,-0.1668,-0.1671,-0.1673,-0.1713,0,0,0,0,0,0,-0.1304,-0.1315,-0.134,-0.1357,-0.1367,-0.1412,-0.1416,-0.1422,-0.146,-0.1463,-0.1502,-0.1507,-0.1507,-0.1557,-0.1564,-0.1598,-0.1553,-0.1666,-0.1669,-0.1672,-0.1709,-0.1716,-0.1722,0,0,0,0,0,-0.1301,-0.1324,-0.1342,-0.1351,-0.1397,-0.1412,-0.1418,-0.1439,-0.1462,-0.1476,-0.1509,-0.1507,-0.1581,-0.1561,-0.1569,-0.1605,-0.1665,-0.1669,-0.1672,-0.1706,-0.1715,-0.1722,0,0,0,0,0,0,-0.1296,-0.133,-0.1349,-0.1384,-0.1402,-0.1417,-0.1441,-0.1459,-0.1498,-0.1512,-0.1528,-0.1535,-0.1588,-0.1594,-0.1572,-0.165,-0.1624,-0.1629,-0.1647,-0.1655,-0.1661,-0.1649,-0.1556,0,0,0,0,0,-0.1307,-0.1332,-0.1361,-0.1386,-0.1407,-0.1435,-0.1452,-0.1463,-0.1491,-0.151,-0.1533,-0.1567,-0.1606,-0.1629,-0.1652,-0.1698,-0.1694,-0.1727,-0.1734,-0.1739,-0.1735,-0.1764,-0.1772,-0.1686,-0.1686,-0.1686,0,0,-0.131,-0.1331,-0.1347,-0.1386,-0.1412,-0.144,-0.1447,-0.1475,-0.1501,-0.1512,-0.1565,-0.1591,-0.1624,-0.1669,-0.1695,-0.1682,-0.1762,-0.1743,-0.1747,-0.1741,-0.1768,-0.1776,-0.1784,-0.1688,-0.1688,-0.1687,0,0,-0.1308,-0.1355,-0.1374,-0.14,-0.1436,-0.1455,-0.1472,-0.1504,-0.1529,-0.1578,-0.1595,-0.1633,-0.1697,-0.171,-0.1734,-0.1791,-0.1793,-0.1817,-0.1842,-0.187,-0.1877,-0.1883,-0.1886,-0.1891,-0.1821,-0.1822,-0.1822,0,-0.1314,-0.1352,-0.1379,-0.1406,-0.1439,-0.147,-0.1504,-0.153,-0.1566,-0.1591,-0.1601,-0.1692,-0.1711,-0.1771,-0.1792,-0.1803,-0.1819,-0.1809,-0.1877,-0.1883,-0.1888,-0.1889,-0.1895,-0.1824,-0.1824,-0.1823,-0.1823,0,-0.1321,-0.1368,-0.1386,-0.1439,-0.1469,-0.1504,-0.1544,-0.1573,-0.1618,-0.1641,-0.171,-0.1737,-0.1789,-0.1808,-0.1824,-0.1882,-0.188,-0.1879,-0.1853,-0.1899,-0.1898,-0.1903,-0.1827,-0.1826,-0.1826,-0.1825,0,0,-0.1299,-0.138,-0.1392,-0.1429,-0.15,-0.1518,-0.1573,-0.1627,-0.1677,-0.1708,-0.1776,-0.1824,-0.1842,-0.1868,-0.1889,-0.1913,-0.1961,-0.1924,-0.1925,-0.1917,-0.2023,-0.1865,-0.1856,-0.1989,-0.199,-0.1991,-0.2004,0,-0.1311,-0.1372,-0.1412,-0.1475,-0.1519,-0.1571,-0.1624,-0.1667,-0.1725,-0.1788,-0.1818,-0.1888,-0.1868,-0.1915,-0.1933,-0.1967,-0.198,-0.1957,-0.1987,-0.1987,-0.1834,-0.1858,-0.1995,-0.2008,-0.2009,-0.201,-0.2011,0,-0.1307,-0.1357,-0.1432,-0.1516,-0.1544,-0.1585,-0.1684,-0.173,-0.1813,-0.1861,-0.1915,-0.1953,-0.1998,-0.1985,-0.2022,-0.2021,-0.2023,-0.2029,-0.203,-0.1869,-0.1838,-0.1955,-0.202,-0.202,-0.2019,-0.2018,-0.2018,0,-0.127,-0.1366,-0.1433,-0.1465,-0.1565,-0.1609,-0.1665,-0.1753,-0.1812,-0.1913,-0.197,-0.2022,-0.2067,-0.208,-0.2072,-0.2076,-0.2105,-0.2107,-0.1953,-0.1942,-0.2063,-0.2057,-0.2123,-0.2123,-0.2123,-0.2123,-0.2123,0,-0.1255,-0.1305,-0.1427,-0.1457,-0.1545,-0.1609,-0.1706,-0.1765,-0.1872,-0.1928,-0.2006,-0.2042,-0.2101,-0.2117,-0.2104,-0.2025,-0.2121,-0.1948,-0.1934,-0.2079,-0.2075,-0.2066,-0.206,-0.2123,-0.2123,-0.2123,-0.2123,0,-0.1182,-0.1272,-0.1347,-0.1475,-0.1528,-0.1581,-0.1726,-0.178,-0.1889,-0.1968,-0.2003,-0.2084,-0.2078,-0.2097,-0.2115,-0.2041,-0.2001,-0.1949,-0.2088,-0.2084,-0.1816,-0.1812,-0.1787,-0.1781,-0.1777,-0.1773,-0.177,0,-0.1145,-0.1188,-0.1348,-0.1408,-0.1472,-0.1579,-0.1652,-0.1777,-0.1824,-0.195,-0.1961,-0.2016,-0.2037,-0.1923,-0.1961,-0.1907,-0.1878,-0.1858,-0.1839,-0.1792,-0.1782,-0.1785,-0.1787,-0.1762,-0.1761,-0.176,-0.1759,0,-0.1079,-0.1155,-0.122,-0.1352,-0.1443,-0.1528,-0.1627,-0.1657,-0.177,-0.1894,-0.1861,-0.1847,-0.1832,-0.1807,-0.1775,-0.1738,-0.1877,-0.181,-0.1819,-0.1801,-0.1762,-0.1757,-0.1764,-0.1742,-0.1745,-0.1746,-0.1747,0,-0.1033,-0.1068,-0.1179,-0.1275,-0.138,-0.1419,-0.1497,-0.1533,-0.1595,-0.1718,-0.1694,-0.173,-0.1799,-0.1717,-0.1685,-0.1635,-0.161,-0.1568,-0.159,-0.1608,-0.154,-0.1463,-0.133,0,0,0,0,0,-0.0976,-0.1016,-0.11,-0.1187,-0.1271,-0.1325,-0.145,-0.1518,-0.1632,-0.156,-0.1621,-0.1584,-0.1529,-0.1555,-0.146,-0.1607,-0.1624,-0.1494,-0.1589,-0.1653,-0.1672,-0.1605,0,0,0,0,0,0,-0.0943,-0.1019,-0.1062,-0.1079,-0.1105,-0.1179,-0.124,-0.1326,-0.1295,-0.1412,-0.1384,-0.1475,-0.1441,-0.1536,-0.1417,-0.1425,-0.1452,-0.1528,-0.1524,-0.1643,-0.1659,-0.1674,-0.1613,0,0,0,0,0]},{"header":{"parameterUnit":"m.s-1","parameterCategory":2,"la1":30.2991,"la2":30.254,"lo1":-89.0895,"lo2":-89.0444,"dy":0.0017,"dx":0.0017,"nx":28,"ny":28,"refTime":"2025-09-13T03:00:00:Z","depth":"4","parameterNumber":3,"parameterNumberName":"V-component_of_CURRENTS"},"data":[0,0,0,0,0,0,0,0,0,0,0,0,0,0,0,0,0,0,0,0,0,0,0,0,0,0,0,0,0,0,0,0,0,0,0,0,0,0,0,0,0,0,0,0,0,0,0,0,0,0,0,0,0,0,0,0,0,0,-0.0284,-0.0284,0,-0.0293,-0.0293,-0.0293,-0.0248,-0.0247,-0.0246,-0.0245,-0.0183,-0.0182,-0.0181,0,0,0,0,0,0,0,0,0,0,0,0,0,-0.0224,-0.0226,-0.0284,-0.0284,-0.0285,-0.0293,-0.0293,-0.0293,-0.0248,-0.0247,-0.0246,-0.0245,-0.0183,-0.0182,-0.0181,0,0,0,0,0,0,0,0,0,0,0,0,0,-0.0241,-0.0226,-0.0284,-0.0266,-0.0264,-0.0293,-0.0293,-0.0293,-0.0249,-0.0247,-0.0246,-0.0244,-0.0183,-0.0182,-0.0181,-0.0207,0,0,-0.0178,-0.0178,0,0,0,0,0,0,0,0,-0.024,-0.0243,-0.0268,-0.0267,-0.0265,-0.027,-0.0249,-0.0261,-0.0249,-0.0252,-0.0245,-0.0243,-0.0208,-0.0205,-0.0208,-0.0204,-0.0201,-0.0178,-0.0177,-0.0177,-0.0177,0,0,0,0,0,0,0,-0.0239,-0.0242,-0.0285,-0.0269,-0.0267,-0.0256,-0.0256,-0.0251,-0.0235,-0.0252,-0.0249,-0.0255,-0.0206,-0.0209,-0.0206,-0.02,-0.0178,-0.0177,-0.0177,-0.0176,-0.0177,-0.0177,0,0,0,0,0,0,-0.0246,-0.0242,-0.0285,-0.0286,-0.0252,-0.0258,-0.0259,-0.0268,-0.0237,-0.0232,-0.0256,-0.0253,-0.0211,-0.0207,-0.0203,-0.0208,-0.0177,-0.0176,-0.0176,-0.0176,-0.0177,-0.0177,0,0,0,0,0,0,-0.0244,-0.025,-0.0284,-0.0265,-0.0269,-0.0261,-0.0272,-0.0269,-0.0269,-0.0242,-0.0234,-0.0259,-0.021,-0.0205,-0.0199,-0.0206,-0.0176,-0.0175,-0.0175,-0.0176,-0.0177,-0.0233,0,0,0,0,0,0,-0.0243,-0.0249,-0.0262,-0.0266,-0.0271,-0.0305,-0.0274,-0.0271,-0.0276,-0.0272,-0.0242,-0.0235,-0.0208,-0.0201,-0.0198,-0.0204,-0.0174,-0.0174,-0.0176,-0.0177,-0.023,-0.0235,-0.024,0,0,0,0,0,-0.0241,-0.0262,-0.0263,-0.0268,-0.0288,-0.0306,-0.0307,-0.0294,-0.0278,-0.0286,-0.0263,-0.0235,-0.0206,-0.0202,-0.0198,-0.0203,-0.0174,-0.0175,-0.0177,-0.0228,-0.0234,-0.024,0,0,0,0,0,0,-0.0243,-0.026,-0.026,-0.0286,-0.0298,-0.0299,-0.0309,-0.0302,-0.0293,-0.029,-0.0251,-0.0243,-0.024,-0.0219,-0.0215,-0.0206,-0.0183,-0.0184,-0.0223,-0.0229,-0.0233,-0.0216,-0.0173,0,0,0,0,0,-0.0253,-0.0274,-0.0285,-0.0309,-0.0315,-0.0315,-0.0322,-0.032,-0.0314,-0.0308,-0.0284,-0.0261,-0.0246,-0.0235,-0.0222,-0.0224,-0.0164,-0.0223,-0.0228,-0.0232,-0.0215,-0.0129,-0.0124,-0.0182,-0.0182,-0.0182,0,0,-0.0267,-0.0276,-0.0291,-0.0312,-0.0317,-0.0339,-0.0314,-0.0336,-0.0346,-0.0305,-0.0303,-0.0283,-0.0253,-0.025,-0.0246,-0.0231,-0.0189,-0.0234,-0.0238,-0.0218,-0.013,-0.0124,-0.0118,-0.0183,-0.0183,-0.0183,0,0,-0.0301,-0.0307,-0.0335,-0.0345,-0.0364,-0.0366,-0.0374,-0.038,-0.037,-0.0383,-0.0346,-0.0327,-0.0315,-0.0282,-0.0267,-0.0293,-0.0222,-0.0293,-0.0298,-0.0216,-0.021,-0.0203,-0.0136,-0.0123,-0.029,-0.0291,-0.0291,0,-0.0313,-0.0348,-0.0347,-0.037,-0.038,-0.0379,-0.0406,-0.0406,-0.0408,-0.0393,-0.0389,-0.0341,-0.0326,-0.0291,-0.0301,-0.0302,-0.0243,-0.0281,-0.022,-0.0212,-0.0205,-0.0137,-0.0122,-0.0293,-0.0293,-0.0293,-0.0292,0,-0.0368,-0.0391,-0.0406,-0.0433,-0.0443,-0.047,-0.0469,-0.0473,-0.0465,-0.045,-0.042,-0.0391,-0.0348,-0.0351,-0.0338,-0.0281,-0.0254,-0.024,-0.0201,-0.0202,-0.0132,-0.0115,-0.0297,-0.0296,-0.0296,-0.0295,0,0,-0.0399,-0.0438,-0.0442,-0.0455,-0.0477,-0.0489,-0.0504,-0.0503,-0.0486,-0.0479,-0.0439,-0.0423,-0.0383,-0.0361,-0.0331,-0.0268,-0.0186,-0.0234,-0.0228,-0.0161,-0.0,-0.0041,-0.0026,-0.0152,-0.0149,-0.0147,0.0022,0,-0.0439,-0.0493,-0.0498,-0.0537,-0.056,-0.0551,-0.0554,-0.0548,-0.0525,-0.0486,-0.0438,-0.0397,-0.0392,-0.0364,-0.0302,-0.0211,-0.0141,-0.0233,-0.0014,-0.0008,-0.0038,-0.0008,-0.0138,0.0034,0.0038,0.0041,0.0043,0,-0.0487,-0.0511,-0.0564,-0.0572,-0.0577,-0.0598,-0.0579,-0.0582,-0.0528,-0.0499,-0.0442,-0.0393,-0.0311,-0.0304,-0.013,-0.0184,-0.0094,-0.0024,-0.0015,-0.0015,-0.0017,0.004,0.0075,0.0072,0.007,0.0068,0.0066,0,-0.0509,-0.0549,-0.0588,-0.0598,-0.0615,-0.0622,-0.0624,-0.0588,-0.057,-0.0495,-0.0461,-0.0354,-0.0295,-0.0165,-0.0052,-0.0069,0.0149,0.0147,0.0199,0.0197,0.0209,0.0201,0.0291,0.029,0.029,0.029,0.0289,0,-0.0544,-0.0571,-0.0603,-0.0625,-0.0647,-0.0642,-0.0641,-0.0621,-0.0572,-0.0538,-0.0462,-0.0402,-0.0253,-0.0129,-0.0018,0.0136,0.0182,0.0217,0.0247,0.0177,0.0163,0.022,0.021,0.0296,0.0294,0.0293,0.0292,0,-0.0565,-0.0595,-0.0633,-0.0656,-0.0666,-0.0678,-0.0678,-0.0665,-0.0614,-0.0563,-0.0538,-0.0413,-0.0253,-0.011,0.0108,0.017,0.0325,0.0369,0.0281,0.03,0.0314,0.0298,0.0464,0.0464,0.0465,0.0465,0.0465,0,-0.0583,-0.0611,-0.0658,-0.0683,-0.0701,-0.0718,-0.073,-0.0697,-0.0674,-0.057,-0.054,-0.0387,-0.0296,-0.001,0.0127,0.035,0.0361,0.0441,0.0379,0.0324,0.0337,0.0321,0.0306,0.0465,0.0465,0.0465,0.0465,0,-0.0599,-0.0623,-0.0654,-0.0713,-0.0742,-0.0759,-0.0767,-0.0752,-0.0695,-0.0651,-0.0514,-0.0374,-0.0199,-0.0008,0.0156,0.0308,0.0389,0.0443,0.0444,0.0386,0.0327,0.0336,0.0321,0.0466,0.0466,0.0465,0.0465,0,-0.0606,-0.0631,-0.0683,-0.0725,-0.0769,-0.0785,-0.0786,-0.0742,-0.0707,-0.0591,-0.0546,-0.0356,-0.0241,-0.0028,0.0126,0.0264,0.0291,0.0322,0.033,0.0331,0.0217,0.0118,0.0238,0,0,0,0,0,-0.0606,-0.064,-0.0689,-0.0737,-0.0782,-0.0801,-0.0802,-0.0788,-0.0736,-0.0642,-0.0588,-0.0423,-0.0182,-0.0072,0.0064,0.0105,0.0294,0.0264,0.0328,0.0468,0.0468,0.035,0,0,0,0,0,0,-0.0606,-0.066,-0.0687,-0.0737,-0.077,-0.0806,-0.0807,-0.0773,-0.0706,-0.0636,-0.0501,-0.0412,-0.0176,-0.0258,0.0061,0.0103,0.0156,0.0384,0.0386,0.0469,0.0468,0.0468,0.0346,0,0,0,0,0]}]]